sat.trackr.live / text

‹ back to catalog

SALSAT

NORAD 46495 · 2020-068K

PAYLOAD ACTIVE UNKNOWN

§ Identity

Operator
Country
GER
Launch date
2020-09-28
Launch site
PLMSC
Launch vehicle
Mass (kg)
RCS (m²)

Purposes: comms, science, tech_demo

External: N2YO · Heavens-Above · Gunter

§ Orbital elements

Epoch: 2026-05-24T23:42:20.888928Z

Period
94.15 min
Inclination
97.8855°
Eccentricity
0.0010594
Mean motion
15.29404891 rev/d
Perigee alt
470.3 km
Apogee alt
484.9 km
Semi-major
6,855.7 km
B*
2.4856e-4
RAAN
146.6473°
Arg perigee
33.8053°
Mean anomaly
326.3859°
Rev number
31,181

§ Raw data

SALSAT1 46495U 20068K   26144.98774177  .00007014  00000+0  24856-3 0  99902 46495  97.8855 146.6473 0010594  33.8053 326.3859 15.29404891311817

JSON: /api/v1/satellites/46495 · /tle

For live sub-satellite position, see the globe view (requires WebGL).

§ Visibility from observer

Set your observer location to see the next 7 days of passes ≥ 10°. The values pass through the URL so the page stays shareable.

No JS? Fill the form by hand. The geolocation button needs JavaScript.

§ Radio — SatNOGS DB

ModeDescriptionDownlinkUplink
AFSK TUBiX10 AFSK 1k2 TLM 435.950 MHz
BPSK BPSK 2.266 GHz

2 transmitters · refreshed weekly from db.satnogs.org